This is the latest recevied weather packets stored in our database for station/object KC3VCX. If no packets are shown the sender has not sent any weather packets the latest 10 day(s).
| Time | Temp. | Humidity | Pressure | Rain* | Wind** | Luminosity | Snow |
|---|---|---|---|---|---|---|---|
| 1777786134 | 0.56° C | 85% | 1017.8 hPa | 0 mm | - | 0 W/m² | - |
| 1777785831 | 0.56° C | 85% | 1018 hPa | 0 mm | - | 0 W/m² | - |
| 1777785527 | 0.56° C | 85% | 1018 hPa | 0 mm | - | 0 W/m² | - |
| 1777785224 | 0.56° C | 85% | 1018.1 hPa | 0 mm | - | 0 W/m² | - |
| 1777784921 | 0.56° C | 85% | 1018 hPa | 0 mm | - | 0 W/m² | - |
| 1777784617 | 0.56° C | 84% | 1018.1 hPa | 0 mm | - | 0 W/m² | - |
| 1777784315 | 0.56° C | 84% | 1018.2 hPa | 0 mm | - | 0 W/m² | - |
| 1777784012 | 0.56° C | 84% | 1018.2 hPa | 0 mm | - | 0 W/m² | - |
| 1777783708 | 1.11° C | 82% | 1018.2 hPa | 0 mm | - | 0 W/m² | - |
| 1777783405 | 1.11° C | 81% | 1018.2 hPa | 0 mm | - | 0 W/m² | - |
| 1777783102 | 1.11° C | 81% | 1018.2 hPa | 0 mm | - | 0 W/m² | - |
| 1777782799 | 1.11° C | 82% | 1018.2 hPa | 0 mm | - | 0 W/m² | - |
| 1777782495 | 1.11° C | 81% | 1018.2 hPa | 0 mm | - | 0 W/m² | - |
| 1777782192 | 1.11° C | 81% | 1018.2 hPa | 0 mm | - | 0 W/m² | - |
| 1777781888 | 1.11° C | 82% | 1018.2 hPa | 0 mm | - | 0 W/m² | - |
| 1777781586 | 1.11° C | 83% | 1018.3 hPa | 0 mm | - | 0 W/m² | - |
| 1777781283 | 1.67° C | 82% | 1018.2 hPa | 0 mm | - | 0 W/m² | - |
| 1777780981 | 1.67° C | 81% | 1018.2 hPa | 0 mm | - | 0 W/m² | - |
| 1777780677 | 1.67° C | 80% | 1018.1 hPa | 0 mm | - | 0 W/m² | - |
| 1777780375 | 1.11° C | 84% | 1018.3 hPa | 0 mm | - | 0 W/m² | - |
| 1777780072 | 1.11° C | 85% | 1018.1 hPa | 0 mm | - | 0 W/m² | - |
| 1777779769 | 1.11° C | 85% | 1018.1 hPa | 0 mm | - | 0 W/m² | - |
| 1777779466 | 1.11° C | 83% | 1018.2 hPa | 0 mm | - | 0 W/m² | - |
| 1777779164 | 1.11° C | 83% | 1018.3 hPa | 0 mm | - | 0 W/m² | - |
| 1777778862 | 1.67° C | 85% | 1018.2 hPa | 0 mm | - | 0 W/m² | - |
* Rain latest hour (hover to see other rain measurements)
** Current wind speed in m/s (hover to see current wind gust speed)